Location: Unspecified
(40.7945°N, 0.0000°E)
Time: 13:39:08
(UTC+00:00)

Tiros 1 despin weight - All Passes

Search period start: 23 January 2021 00:00
Search period end: 02 February 2021 00:00
Orbit: 594 x 641 km, 48.2° (Epoch: 22 January)

Date Brightness Start Highest point End Pass type
(mag) Time Alt. Az. Time Alt. Az. Time Alt. Az.
23 Jan - 13:16:56 10° S 13:20:32 23° SE 13:24:06 10° E daylight
23 Jan - 14:57:11 10° WSW 15:01:44 78° NNW 15:06:14 10° ENE daylight
23 Jan - 16:39:37 10° WNW 16:43:44 34° N 16:47:48 10° ENE daylight
23 Jan - 18:21:54 10° NW 18:26:02 36° NNE 18:30:08 10° E visible
23 Jan - 20:03:27 10° WNW 20:07:55 85° SSW 20:12:19 10° ESE visible
23 Jan - 21:46:06 10° W 21:48:55 17° SW 21:51:44 10° S night (unlit)
24 Jan - 13:32:22 10° SSW 13:36:42 43° SE 13:40:58 10° ENE daylight
24 Jan - 15:13:48 10° W 15:18:14 51° NNW 15:22:36 10° NE daylight
24 Jan - 16:56:24 10° WNW 17:00:25 31° N 17:04:25 10° ENE daylight
24 Jan - 18:38:19 10° NW 18:42:39 47° NNE 18:46:56 10° E visible
24 Jan - 20:19:57 10° WNW 20:24:13 47° SW 20:28:26 10° SE visible
25 Jan - 12:09:15 10° S 12:11:59 16° SE 12:14:42 10° E daylight
25 Jan - 13:48:25 10° SW 13:53:00 78° SSE 13:57:31 10° ENE daylight
25 Jan - 15:30:35 10° W 15:34:50 38° NNW 15:39:01 10° NE daylight
25 Jan - 17:13:03 10° WNW 17:17:08 33° N 17:21:10 10° ENE daylight
25 Jan - 18:54:42 10° WNW 18:59:10 72° NNE 19:03:34 10° ESE visible
25 Jan - 20:36:47 10° W 20:40:23 25° SW 20:43:59 10° SSE visible
26 Jan - 12:24:04 10° SSW 12:28:04 30° SE 12:32:02 10° ENE daylight
26 Jan - 14:04:52 10° WSW 14:09:25 65° NNW 14:13:54 10° ENE daylight
26 Jan - 15:47:25 10° WNW 15:51:30 32° N 15:55:32 10° ENE daylight
26 Jan - 17:29:33 10° NW 17:33:48 39° NNE 17:37:59 10° E visible
26 Jan - 19:11:07 10° WNW 19:15:33 68° SSW 19:19:55 10° SE visible
26 Jan - 20:54:34 10° WSW 20:56:26 12° SW 20:58:16 10° SSW visible
27 Jan - 11:03:08 10° SE 11:03:28 10° SE 11:03:48 10° SE daylight
27 Jan - 12:39:47 10° SW 12:44:17 55° SE 12:48:44 10° ENE daylight
27 Jan - 14:21:34 10° W 14:25:57 44° NNW 14:30:17 10° NE daylight
27 Jan - 16:04:09 10° WNW 16:08:13 31° N 16:12:13 10° ENE daylight
27 Jan - 17:45:58 10° WNW 17:50:23 55° NNE 17:54:44 10° E visible
27 Jan - 19:27:43 10° WNW 19:31:48 36° SW 19:35:51 10° SSE visible
28 Jan - 11:16:03 10° S 11:19:29 21° SE 11:22:53 10° E daylight
28 Jan - 12:56:01 10° WSW 13:00:37 85° NNW 13:05:11 10° ENE daylight
28 Jan - 14:38:23 10° WNW 14:42:35 35° N 14:46:43 10° ENE daylight
28 Jan - 16:20:45 10° WNW 16:24:54 35° N 16:29:01 10° ENE daylight
28 Jan - 18:02:20 10° WNW 18:06:51 87° NNE 18:11:16 10° ESE visible
28 Jan - 19:44:47 10° W 19:47:55 19° SW 19:51:02 10° S visible
29 Jan - 11:31:19 10° SSW 11:35:37 39° SE 11:39:52 10° ENE daylight
29 Jan - 13:12:35 10° W 13:17:06 55° NNW 13:21:34 10° ENE daylight
29 Jan - 14:55:11 10° WNW 14:59:17 31° N 15:03:19 10° ENE daylight
29 Jan - 16:37:12 10° NW 16:41:32 45° NNE 16:45:49 10° E daylight
29 Jan - 18:18:49 10° WNW 18:23:10 53° SW 18:27:28 10° SE visible
30 Jan - 10:08:31 10° SSE 10:10:56 14° SE 10:13:19 10° E daylight
30 Jan - 11:47:16 10° SW 11:51:53 71° SSE 11:56:26 10° ENE daylight
30 Jan - 13:29:21 10° W 13:33:41 40° NNW 13:37:58 10° NE daylight
30 Jan - 15:11:52 10° WNW 15:15:59 32° N 15:20:03 10° ENE daylight
30 Jan - 16:53:35 10° WNW 16:58:04 66° NNE 17:02:29 10° ESE daylight
30 Jan - 18:35:33 10° W 18:39:22 28° SW 18:43:08 10° SSE visible
31 Jan - 10:23:05 10° SSW 10:26:59 27° SE 10:30:52 10° E daylight
31 Jan - 12:03:40 10° WSW 12:08:17 71° NNW 12:12:51 10° ENE daylight
31 Jan - 13:46:11 10° WNW 13:50:20 33° N 13:54:28 10° ENE daylight
31 Jan - 15:28:24 10° NW 15:32:40 38° NNE 15:36:52 10° E daylight
31 Jan - 17:10:00 10° WNW 17:14:29 75° SSW 17:18:55 10° SE daylight
31 Jan - 18:53:01 10° W 18:55:25 14° SW 18:57:48 10° SSW visible
01 Feb - 10:38:41 10° SW 10:43:11 50° SE 10:47:38 10° ENE daylight
01 Feb - 12:20:20 10° W 12:24:48 47° NNW 12:29:13 10° NE daylight
01 Feb - 14:02:56 10° WNW 14:07:03 32° N 14:11:07 10° ENE daylight
01 Feb - 15:44:49 10° NW 15:49:16 52° NNE 15:53:37 10° E daylight
01 Feb - 17:26:32 10° WNW 17:30:45 41° SW 17:34:55 10° SSE daylight
